Home > Weather > Nuremberg > Past weeks

Flag for Germany Weather for the Past 2 Weeks in Nuremberg, Bavaria, Germany

Now
41 °F

Partly cloudy.


Feels Like: 32 °F
Forecast: 35 / 40 °F
Wind: 21 mph from West

Location: Nuernberg

Current Time: Feb 10, 2016 at 12:16:58 AM

Latest Report: Feb 9, 2016 at 11:50 PM


Visibility: N/A

Pressure: 29.30 "Hg

Humidity: 81%

Dew point: 36 °F

Location of NurembergLocation

Historic Weather in Nuremberg — Graph

°F

Nuremberg Temperature Yesterday

Maximum temperature yesterday: 52 °F (at 7:20 PM)
Minimum temperature yesterday: 39 °F (at 4:20 AM)
Average temperature yesterday: 44 °F

High & Low Weather Summary for the Past Weeks

 TemperatureHumidityPressure
High57 °F (Jan 27, 2:20 PM)100% (Jan 25, 10:20 PM)30.42 "Hg (Jan 25, 10:20 PM)
Low30 °F (Feb 7, 5:20 AM)50% (Feb 7, 1:20 PM)29.15 "Hg (Feb 9, 6:50 PM)
Average43 °F81%30.04 "Hg
* Reported Jan 25 10:20 PM — Feb 9 10:20 PM, Nuremberg, Weather by CustomWeather, © 2016

Note: Actual official high and low records may vary slightly from our data, if they occured in-between our weather recording intervals... More about our weather records

Advertising

Nuremberg Weather History for the Previous 24 Hours

 ConditionsComfort  
Time TempWeatherWind HumidityBarometerVisibility
10:20 PM
Tue, Feb 9
41 °FPassing clouds.17 mph81%29.21 "HgN/A
9:50 PM43 °FSprinkles. Partly cloudy.32 mph81%29.24 "Hg6 mi
9:20 PM43 °FPartly cloudy.14 mph81%29.21 "HgN/A
8:50 PM43 °FRain showers. Passing clouds.21 mph87%29.21 "Hg6 mi
8:20 PM43 °FSprinkles. Partly cloudy.16 mph87%29.21 "HgN/A
7:50 PM41 °FRain showers. Passing clouds.35 mph93%29.21 "Hg4 mi
7:20 PM52 °FThundershowers. Partly cloudy.14 mph67%29.15 "HgN/A
6:50 PM48 °FPassing clouds.10 mph76%29.15 "HgN/A
6:20 PM46 °FPassing clouds.12 mph82%29.18 "HgN/A
5:50 PM46 °FLight rain. Partly cloudy.10 mph82%29.18 "HgN/A
5:20 PM46 °FSunny.10 mph82%29.21 "Hg10 mi
4:20 PM46 °FLight rain. Partly sunny.10 mph87%29.27 "HgN/A
3:20 PM46 °FLight rain. Broken clouds.12 mph87%29.27 "HgN/A
2:50 PM48 °FPartly sunny.12 mph76%29.27 "HgN/A
2:20 PM46 °FLight rain. Partly sunny.13 mph87%29.30 "HgN/A
1:50 PM46 °FBroken clouds.12 mph82%29.33 "HgN/A
1:20 PM45 °FBroken clouds.10 mph87%29.36 "HgN/A
12:50 PM45 °FPartly sunny.14 mph87%29.42 "HgN/A
12:20 PM45 °FLight rain. Broken clouds.9 mph87%29.42 "HgN/A
11:20 AM45 °FLight rain. Partly sunny.8 mph81%29.50 "HgN/A
10:50 AM45 °FLight rain. Broken clouds.6 mph81%29.53 "HgN/A
10:20 AM45 °FPassing clouds.7 mph81%29.56 "HgN/A
9:50 AM43 °FPassing clouds.6 mph87%29.56 "HgN/A
9:20 AM43 °FPassing clouds.5 mph81%29.59 "HgN/A
8:50 AM43 °FBroken clouds.9 mph81%29.59 "HgN/A
8:20 AM41 °FBroken clouds.8 mph87%29.62 "HgN/A
7:50 AM41 °FBroken clouds.12 mph87%29.62 "HgN/A
7:20 AM41 °FPassing clouds.8 mph87%29.65 "HgN/A
6:50 AM43 °FPartly cloudy.13 mph81%29.65 "HgN/A
6:20 AM43 °FLight rain. Passing clouds.13 mph81%29.65 "HgN/A
5:50 AM41 °FPassing clouds.9 mph87%29.68 "HgN/A
5:20 AM41 °FPassing clouds.8 mph81%29.68 "HgN/A
4:50 AM39 °FPassing clouds.6 mph87%29.68 "HgN/A
4:20 AM39 °FPassing clouds.6 mph87%29.68 "HgN/A
3:50 AM41 °FPassing clouds.9 mph87%29.71 "HgN/A
3:20 AM41 °FSprinkles. Partly cloudy.25 mph87%29.71 "HgN/A
2:20 AM45 °FPartly cloudy.13 mph71%29.68 "HgN/A
1:50 AM45 °FPartly cloudy.13 mph71%29.68 "HgN/A
1:20 AM45 °FPartly cloudy.10 mph76%29.68 "HgN/A
12:50 AM43 °FPartly cloudy.10 mph81%29.68 "HgN/A
12:20 AM43 °FPartly cloudy.9 mph81%29.68 "HgN/A
Weather by CustomWeather, © 2016

See weather overviewHow to use our weather pages